カタログに戻る

HULIANWANG DIGUI-81

運用中通信LEO
NORAD 65313·PAYLOAD·🇨🇳 China

打ち上げ Aug 25, 2025 から Wenchang Space Launch Site

Loading…

次のパス (今後24時間)

TLE

最新Source: Space-Track

元期: Sep 14, 2026, 23:15 UTC

1 65313U 25187J   26257.96888175 -.00000104  00000-0  42927-4 0  9999
2 65313  50.0055 243.8697 0000665 338.8612  21.2233 13.29322158 51658

AllMySatでHULIANWANG DIGUI-81をリアルタイム追跡

Download on the App Store